Location: B
(0.0000°N, 0.0000°E)
Time: 07:22:04
(UTC+02:00)

Cosmos 1025 Rocket - Visible Passes

Search period start: 31 July 2014 00:00
Search period end: 10 August 2014 00:00
Orbit: 597 x 620 km, 82.5° (Epoch: 30 July)

Date Brightness Start Highest point End Pass type
(mag) Time Alt. Az. Time Alt. Az. Time Alt. Az.
06 Aug 5.9 22:34:15 10° NNW 22:34:30 11° NNW 22:34:30 11° NNW visible
07 Aug 6.2 22:49:10 10° NW 22:49:11 10° NW 22:49:11 10° NW visible
08 Aug 4.5 21:25:01 10° NNE 21:26:57 22° NE 21:26:57 22° NE visible
09 Aug 3.3 21:38:30 10° N 21:41:49 50° NNE 21:41:49 50° NNE visible
